When you browse on this site, cookies collect data to enhance your experience and personalize the content and advertising you see.
Visit our Privacy Policy to learn more. By continuing to use the site, you agree to this use of cookies and data.
  • In Switzerland
  • List of Countries
  • For 7 days
  • Water Temperature
  • Weather Map
  • Weather Widgets
  • user-avatar
    Login

    Hourly Weather Armagh

    Today, 10 April, Friday

    Time Temperature Precipitation Wind Pressure Humidity
    00:00 +9°C° 0 mm 1 mps 762 mmHg 95%
    01:00 +9°C° 0 mm 1 mps 762 mmHg 94%
    02:00 +9°C° 0 mm 1 mps 761 mmHg 94%
    03:00 +9°C° 0 mm 1 mps 761 mmHg 94%
    04:00 +9°C° 0 mm 1 mps 761 mmHg 93%
    05:00 +9°C° 0 mm 1 mps 761 mmHg 93%
    06:00 +9°C° 0 mm 1 mps 761 mmHg 90%
    07:00 +11°C° 0 mm 1 mps 761 mmHg 87%
    08:00 +13°C° 0 mm 2 mps 761 mmHg 85%
    09:00 +14°C° 0 mm 2 mps 761 mmHg 82%
    10:00 +15°C° 0 mm 2 mps 761 mmHg 80%
    11:00 +16°C° 0 mm 2 mps 761 mmHg 79%
    12:00 +17°C° 0 mm 2 mps 761 mmHg 77%
    13:00 +17°C° 0 mm 2 mps 761 mmHg 77%
    14:00 +17°C° 0 mm 2 mps 761 mmHg 78%
    15:00 +17°C° 0 mm 2 mps 761 mmHg 78%
    16:00 +16°C° 0.1 mm 2 mps 760 mmHg 82%
    17:00 +16°C° 0.1 mm 2 mps 760 mmHg 85%
    18:00 +15°C° 0.1 mm 1 mps 760 mmHg 89%
    19:00 +14°C° 0.1 mm 1 mps 761 mmHg 90%
    20:00 +13°C° 0.1 mm 1 mps 761 mmHg 91%
    21:00 +12°C° 0.1 mm 1 mps 761 mmHg 93%
    22:00 +12°C° 0 mm 1 mps 761 mmHg 93%
    23:00 +11°C° 0 mm 1 mps 761 mmHg 93%

    Tomorrow, 11 April, Saturday

    Time Temperature Precipitation Wind Pressure Humidity
    00:00 +11°C° 0 mm 1 mps 761 mmHg 94%
    01:00 +10°C° 0 mm 1 mps 761 mmHg 94%
    02:00 +10°C° 0 mm 1 mps 761 mmHg 94%
    03:00 +10°C° 0 mm 1 mps 761 mmHg 94%
    04:00 +10°C° 0 mm 1 mps 761 mmHg 95%
    05:00 +10°C° 0 mm 1 mps 761 mmHg 95%
    06:00 +9°C° 0 mm 1 mps 762 mmHg 96%
    07:00 +10°C° 0 mm 2 mps 762 mmHg 93%
    08:00 +12°C° 0 mm 2 mps 762 mmHg 91%
    09:00 +13°C° 0 mm 2 mps 762 mmHg 88%
    10:00 +14°C° 0 mm 2 mps 762 mmHg 82%
    11:00 +14°C° 0 mm 2 mps 762 mmHg 76%
    12:00 +15°C° 0 mm 2 mps 763 mmHg 69%
    13:00 +16°C° 0 mm 2 mps 762 mmHg 66%
    14:00 +16°C° 0 mm 2 mps 762 mmHg 62%
    15:00 +17°C° 0 mm 2 mps 762 mmHg 58%
    16:00 +16°C° 0 mm 2 mps 762 mmHg 62%
    17:00 +15°C° 0 mm 2 mps 761 mmHg 67%
    18:00 +14°C° 0 mm 2 mps 761 mmHg 71%
    19:00 +12°C° 0 mm 2 mps 761 mmHg 73%
    20:00 +11°C° 0 mm 1 mps 761 mmHg 75%
    21:00 +9°C° 0 mm 1 mps 761 mmHg 77%
    22:00 +9°C° 0 mm 1 mps 760 mmHg 78%
    23:00 +9°C° 0 mm 1 mps 760 mmHg 79%

    Day after tomorrow, 12 April, Sunday

    Time Temperature Precipitation Wind Pressure Humidity
    00:00 +8°C° 0 mm 2 mps 760 mmHg 81%
    01:00 +8°C° 0 mm 2 mps 759 mmHg 81%
    02:00 +8°C° 0 mm 2 mps 758 mmHg 82%
    03:00 +9°C° 0 mm 2 mps 757 mmHg 83%
    04:00 +8°C° 0.2 mm 2 mps 756 mmHg 87%
    05:00 +8°C° 0.2 mm 2 mps 756 mmHg 92%
    06:00 +8°C° 0.2 mm 2 mps 755 mmHg 97%
    07:00 +9°C° 0.2 mm 1 mps 755 mmHg 96%
    08:00 +9°C° 0.2 mm 1 mps 754 mmHg 96%
    09:00 +9°C° 0.2 mm 1 mps 754 mmHg 96%
    10:00 +9°C° 0.6 mm 1 mps 754 mmHg 96%
    11:00 +9°C° 0.6 mm 2 mps 754 mmHg 96%
    12:00 +9°C° 0.6 mm 3 mps 753 mmHg 96%
    13:00 +8°C° 1.6 mm 3 mps 753 mmHg 95%
    14:00 +8°C° 1.6 mm 3 mps 753 mmHg 95%
    15:00 +7°C° 1.6 mm 4 mps 753 mmHg 95%
    16:00 +7°C° 0.2 mm 5 mps 753 mmHg 95%
    17:00 +7°C° 0.2 mm 5 mps 753 mmHg 95%
    18:00 +7°C° 0.2 mm 6 mps 754 mmHg 95%
    19:00 +6°C° 0.2 mm 7 mps 755 mmHg 94%
    20:00 +6°C° 0.2 mm 7 mps 755 mmHg 93%
    21:00 +6°C° 0.2 mm 8 mps 756 mmHg 92%
    22:00 +5°C° 0 mm 7 mps 757 mmHg 90%
    23:00 +4°C° 0 mm 7 mps 758 mmHg 88%

    13 April, Monday

    Time Temperature Precipitation Wind Pressure Humidity
    00:00 +4°C° 0 mm 7 mps 759 mmHg 86%
    01:00 +4°C° 0 mm 7 mps 759 mmHg 86%
    02:00 +3°C° 0 mm 7 mps 760 mmHg 87%
    03:00 +3°C° 0 mm 7 mps 761 mmHg 87%
    04:00 +3°C° 0 mm 6 mps 762 mmHg 86%
    05:00 +3°C° 0 mm 6 mps 762 mmHg 86%
    06:00 +2°C° 0 mm 6 mps 763 mmHg 85%
    07:00 +3°C° 0 mm 6 mps 764 mmHg 79%
    08:00 +4°C° 0 mm 6 mps 765 mmHg 73%
    09:00 +4°C° 0 mm 7 mps 765 mmHg 68%
    10:00 +5°C° 0 mm 6 mps 765 mmHg 66%
    11:00 +7°C° 0 mm 6 mps 766 mmHg 65%
    12:00 +8°C° 0 mm 6 mps 766 mmHg 63%
    13:00 +8°C° 0 mm 6 mps 766 mmHg 63%
    14:00 +8°C° 0 mm 5 mps 766 mmHg 63%
    15:00 +9°C° 0 mm 5 mps 766 mmHg 63%
    16:00 +8°C° 0 mm 4 mps 766 mmHg 66%
    17:00 +7°C° 0 mm 4 mps 766 mmHg 69%
    18:00 +8°C° 0 mm 3 mps 765 mmHg 72%
    19:00 +5°C° 0 mm 3 mps 766 mmHg 78%
    20:00 +4°C° 0 mm 2 mps 766 mmHg 84%
    21:00 +3°C° 0 mm 2 mps 766 mmHg 90%
    22:00 +2°C° 0 mm 2 mps 766 mmHg 90%
    23:00 +2°C° 0 mm 2 mps 766 mmHg 91%

    14 April, Tuesday

    Time Temperature Precipitation Wind Pressure Humidity
    00:00 +2°C° 0 mm 2 mps 766 mmHg 92%
    01:00 +1°C° 0 mm 2 mps 766 mmHg 92%
    02:00 +1°C° 0 mm 2 mps 765 mmHg 93%
    03:00 +2°C° 0 mm 1 mps 765 mmHg 94%
    04:00 +1°C° 0 mm 2 mps 765 mmHg 94%
    05:00 +1°C° 0 mm 2 mps 765 mmHg 94%
    06:00 +1°C° 0 mm 2 mps 764 mmHg 94%
    07:00 +3°C° 0 mm 2 mps 764 mmHg 86%
    08:00 +5°C° 0 mm 2 mps 764 mmHg 78%
    09:00 +7°C° 0 mm 3 mps 764 mmHg 70%
    10:00 +8°C° 0 mm 3 mps 763 mmHg 66%
    11:00 +9°C° 0 mm 3 mps 763 mmHg 62%
    12:00 +11°C° 0 mm 3 mps 763 mmHg 57%
    13:00 +11°C° 0 mm 3 mps 762 mmHg 57%
    14:00 +11°C° 0 mm 3 mps 762 mmHg 57%
    15:00 +11°C° 0 mm 3 mps 761 mmHg 57%
    16:00 +10°C° 0 mm 3 mps 761 mmHg 61%
    17:00 +9°C° 0 mm 3 mps 761 mmHg 66%
    18:00 +8°C° 0 mm 2 mps 760 mmHg 70%
    19:00 +6°C° 0 mm 2 mps 760 mmHg 74%
    20:00 +4°C° 0 mm 2 mps 760 mmHg 77%
    21:00 +2°C° 0 mm 2 mps 760 mmHg 81%
    22:00 +2°C° 0 mm 2 mps 760 mmHg 82%
    23:00 +2°C° 0 mm 2 mps 760 mmHg 83%

    15 April, Wednesday

    Time Temperature Precipitation Wind Pressure Humidity
    00:00 +2°C° 0 mm 2 mps 760 mmHg 85%
    01:00 +2°C° 0 mm 2 mps 760 mmHg 87%
    02:00 +3°C° 0 mm 2 mps 759 mmHg 90%
    03:00 +3°C° 0 mm 2 mps 759 mmHg 92%
    04:00 +3°C° 0 mm 2 mps 759 mmHg 92%
    05:00 +3°C° 0 mm 2 mps 759 mmHg 93%
    06:00 +3°C° 0 mm 2 mps 758 mmHg 93%
    07:00 +3°C° 0 mm 3 mps 758 mmHg 85%
    08:00 +5°C° 0 mm 3 mps 758 mmHg 76%
    09:00 +7°C° 0 mm 4 mps 758 mmHg 67%
    10:00 +8°C° 0 mm 4 mps 758 mmHg 65%
    11:00 +10°C° 0 mm 4 mps 758 mmHg 62%
    12:00 +11°C° 0 mm 4 mps 757 mmHg 60%
    13:00 +11°C° 0 mm 4 mps 757 mmHg 61%
    14:00 +11°C° 0 mm 4 mps 757 mmHg 62%
    15:00 +11°C° 0 mm 4 mps 757 mmHg 62%
    16:00 +10°C° 0 mm 3 mps 756 mmHg 67%
    17:00 +10°C° 0 mm 3 mps 756 mmHg 71%
    18:00 +9°C° 0 mm 2 mps 756 mmHg 76%
    19:00 +8°C° 0 mm 2 mps 756 mmHg 80%
    20:00 +6°C° 0 mm 2 mps 756 mmHg 84%
    21:00 +5°C° 0 mm 1 mps 756 mmHg 89%
    22:00 +5°C° 0 mm 1 mps 756 mmHg 89%
    23:00 +5°C° 0 mm 1 mps 756 mmHg 89%
    Show more